Météo par heure à Judziki

Ce jour, 17 Juin, Jeudi

Heure Température Précipitation Vent Pression Humidité
00:00 +12°C° 0 mm 2 m/s 749 mmHg 88%
01:00 +12°C° 0 mm 2 m/s 749 mmHg 88%
02:00 +12°C° 0 mm 2 m/s 749 mmHg 88%
03:00 +12°C° 0 mm 2 m/s 749 mmHg 88%
04:00 +12°C° 0 mm 2 m/s 749 mmHg 88%
05:00 +12°C° 0 mm 2 m/s 749 mmHg 88%
06:00 +14°C° 0 mm 2 m/s 749 mmHg 82%
07:00 +16°C° 0 mm 2 m/s 750 mmHg 76%
08:00 +18°C° 0 mm 2 m/s 750 mmHg 70%
09:00 +19°C° 0 mm 2 m/s 750 mmHg 65%
10:00 +21°C° 0 mm 3 m/s 750 mmHg 60%
11:00 +22°C° 0 mm 3 m/s 751 mmHg 55%
12:00 +24°C° 0 mm 3 m/s 750 mmHg 52%
13:00 +25°C° 0 mm 3 m/s 750 mmHg 50%
14:00 +25°C° 0 mm 3 m/s 750 mmHg 47%
15:00 +25°C° 0 mm 2 m/s 750 mmHg 50%
16:00 +25°C° 0 mm 2 m/s 750 mmHg 52%
17:00 +25°C° 0 mm 2 m/s 750 mmHg 54%
18:00 +24°C° 0 mm 2 m/s 750 mmHg 62%
19:00 +21°C° 0 mm 2 m/s 750 mmHg 69%
20:00 +20°C° 0 mm 2 m/s 750 mmHg 77%
21:00 +19°C° 0 mm 2 m/s 750 mmHg 79%
22:00 +17°C° 0 mm 2 m/s 750 mmHg 81%
23:00 +16°C° 0 mm 2 m/s 750 mmHg 83%

Demain, 18 Juin, Vendredi

Heure Température Précipitation Vent Pression Humidité
00:00 +15°C° 0 mm 2 m/s 750 mmHg 84%
01:00 +15°C° 0 mm 2 m/s 750 mmHg 86%
02:00 +15°C° 0 mm 2 m/s 750 mmHg 88%
03:00 +15°C° 0 mm 2 m/s 750 mmHg 89%
04:00 +15°C° 0 mm 2 m/s 750 mmHg 89%
05:00 +15°C° 0 mm 2 m/s 750 mmHg 90%
06:00 +17°C° 0 mm 3 m/s 750 mmHg 84%
07:00 +19°C° 0 mm 3 m/s 750 mmHg 79%
08:00 +21°C° 0 mm 3 m/s 750 mmHg 73%
09:00 +22°C° 0 mm 3 m/s 750 mmHg 69%
10:00 +25°C° 0 mm 4 m/s 750 mmHg 65%
11:00 +26°C° 0 mm 4 m/s 750 mmHg 60%
12:00 +27°C° 0 mm 4 m/s 750 mmHg 58%
13:00 +27°C° 0 mm 4 m/s 750 mmHg 56%
14:00 +28°C° 0 mm 4 m/s 749 mmHg 54%
15:00 +27°C° 0 mm 4 m/s 749 mmHg 56%
16:00 +27°C° 0 mm 4 m/s 749 mmHg 58%
17:00 +27°C° 0 mm 3 m/s 749 mmHg 60%
18:00 +25°C° 0 mm 3 m/s 749 mmHg 65%
19:00 +24°C° 0 mm 3 m/s 749 mmHg 71%
20:00 +21°C° 0 mm 3 m/s 749 mmHg 77%
21:00 +20°C° 0 mm 3 m/s 749 mmHg 81%
22:00 +19°C° 0 mm 3 m/s 749 mmHg 85%
23:00 +17°C° 0 mm 3 m/s 749 mmHg 88%

Après-demain, 19 Juin, Samedi

Heure Température Précipitation Vent Pression Humidité
00:00 +17°C° 0 mm 3 m/s 749 mmHg 89%
01:00 +17°C° 0 mm 3 m/s 749 mmHg 90%
02:00 +16°C° 0 mm 3 m/s 749 mmHg 91%
03:00 +16°C° 0 mm 2 m/s 749 mmHg 91%
04:00 +16°C° 0 mm 2 m/s 749 mmHg 90%
05:00 +16°C° 0 mm 2 m/s 749 mmHg 90%
06:00 +18°C° 0 mm 3 m/s 749 mmHg 85%
07:00 +20°C° 0 mm 3 m/s 749 mmHg 80%
08:00 +22°C° 0 mm 3 m/s 749 mmHg 76%
09:00 +25°C° 0 mm 3 m/s 749 mmHg 72%
10:00 +26°C° 0 mm 4 m/s 749 mmHg 68%
11:00 +27°C° 0 mm 4 m/s 749 mmHg 64%
12:00 +28°C° 0 mm 4 m/s 748 mmHg 62%
13:00 +28°C° 0 mm 4 m/s 748 mmHg 59%
14:00 +29°C° 0 mm 4 m/s 748 mmHg 57%
15:00 +29°C° 0 mm 4 m/s 748 mmHg 61%
16:00 +28°C° 0 mm 3 m/s 747 mmHg 65%
17:00 +27°C° 0 mm 3 m/s 747 mmHg 69%
18:00 +27°C° 0 mm 3 m/s 747 mmHg 73%
19:00 +26°C° 0 mm 3 m/s 747 mmHg 77%
20:00 +25°C° 0 mm 3 m/s 747 mmHg 80%
21:00 +22°C° 0 mm 3 m/s 747 mmHg 84%
22:00 +21°C° 0 mm 3 m/s 747 mmHg 88%
23:00 +20°C° 0 mm 3 m/s 747 mmHg 91%

20 Juin, Dimanche

Heure Température Précipitation Vent Pression Humidité
00:00 +20°C° 0 mm 3 m/s 747 mmHg 92%
01:00 +19°C° 0 mm 3 m/s 747 mmHg 93%
02:00 +19°C° 0 mm 2 m/s 747 mmHg 94%
03:00 +19°C° 0 mm 2 m/s 747 mmHg 94%
04:00 +18°C° 0 mm 2 m/s 747 mmHg 94%
05:00 +18°C° 0 mm 2 m/s 747 mmHg 94%
06:00 +20°C° 0 mm 2 m/s 747 mmHg 88%
07:00 +21°C° 0 mm 3 m/s 747 mmHg 82%
08:00 +24°C° 0 mm 3 m/s 747 mmHg 76%
09:00 +25°C° 0 mm 3 m/s 747 mmHg 71%
10:00 +26°C° 0 mm 4 m/s 747 mmHg 66%
11:00 +27°C° 0 mm 4 m/s 747 mmHg 62%
12:00 +28°C° 0.3 mm 4 m/s 746 mmHg 62%
13:00 +28°C° 0.3 mm 4 m/s 746 mmHg 63%
14:00 +28°C° 0.3 mm 4 m/s 746 mmHg 63%
15:00 +28°C° 0.3 mm 4 m/s 746 mmHg 65%
16:00 +27°C° 0.3 mm 3 m/s 745 mmHg 67%
17:00 +27°C° 0.3 mm 3 m/s 745 mmHg 69%
18:00 +26°C° 0.1 mm 3 m/s 745 mmHg 73%
19:00 +25°C° 0.1 mm 3 m/s 745 mmHg 76%
20:00 +24°C° 0.1 mm 3 m/s 745 mmHg 79%
21:00 +22°C° 0 mm 3 m/s 745 mmHg 83%
22:00 +21°C° 0 mm 3 m/s 745 mmHg 87%
23:00 +20°C° 0 mm 3 m/s 745 mmHg 90%

21 Juin, Lundi

Heure Température Précipitation Vent Pression Humidité
00:00 +19°C° 0 mm 3 m/s 744 mmHg 92%
01:00 +19°C° 0 mm 3 m/s 744 mmHg 93%
02:00 +19°C° 0 mm 2 m/s 744 mmHg 95%
03:00 +19°C° 0 mm 3 m/s 744 mmHg 95%
04:00 +19°C° 0 mm 3 m/s 744 mmHg 95%
05:00 +18°C° 0 mm 3 m/s 744 mmHg 95%
06:00 +20°C° 0 mm 3 m/s 744 mmHg 89%
07:00 +22°C° 0 mm 4 m/s 744 mmHg 83%
08:00 +23°C° 0 mm 4 m/s 744 mmHg 77%
09:00 +25°C° 0 mm 5 m/s 744 mmHg 70%
10:00 +26°C° 0 mm 5 m/s 744 mmHg 64%
11:00 +27°C° 0 mm 6 m/s 744 mmHg 58%
12:00 +28°C° 0 mm 6 m/s 743 mmHg 56%
13:00 +29°C° 0 mm 6 m/s 743 mmHg 54%
14:00 +29°C° 0 mm 5 m/s 743 mmHg 52%
15:00 +29°C° 0 mm 5 m/s 743 mmHg 54%
16:00 +29°C° 0 mm 5 m/s 743 mmHg 56%
17:00 +29°C° 0 mm 4 m/s 743 mmHg 59%
18:00 +28°C° 0 mm 4 m/s 742 mmHg 64%
19:00 +26°C° 0 mm 4 m/s 742 mmHg 69%
20:00 +25°C° 0 mm 4 m/s 742 mmHg 74%
21:00 +24°C° 0 mm 3 m/s 742 mmHg 76%
22:00 +22°C° 0 mm 3 m/s 742 mmHg 77%
23:00 +22°C° 0 mm 3 m/s 742 mmHg 79%

22 Juin, Mardi

Heure Température Précipitation Vent Pression Humidité
00:00 +22°C° 0 mm 3 m/s 742 mmHg 79%
01:00 +22°C° 0 mm 3 m/s 741 mmHg 80%
02:00 +21°C° 0 mm 3 m/s 741 mmHg 81%
03:00 +21°C° 0 mm 3 m/s 741 mmHg 85%
04:00 +20°C° 0 mm 3 m/s 741 mmHg 88%
05:00 +20°C° 0 mm 3 m/s 741 mmHg 92%
06:00 +21°C° 0 mm 3 m/s 741 mmHg 87%
07:00 +22°C° 0 mm 4 m/s 741 mmHg 81%
08:00 +25°C° 0 mm 4 m/s 741 mmHg 76%
09:00 +26°C° 0.1 mm 4 m/s 741 mmHg 73%
10:00 +27°C° 0.1 mm 5 m/s 741 mmHg 70%
11:00 +28°C° 0.1 mm 5 m/s 741 mmHg 67%
12:00 +28°C° 0.3 mm 5 m/s 741 mmHg 65%
13:00 +29°C° 0.3 mm 5 m/s 741 mmHg 62%
14:00 +29°C° 0.3 mm 5 m/s 741 mmHg 60%
15:00 +29°C° 0.3 mm 4 m/s 741 mmHg 62%
16:00 +29°C° 0.3 mm 4 m/s 741 mmHg 64%
17:00 +29°C° 0.3 mm 4 m/s 741 mmHg 66%
18:00 +27°C° 0.6 mm 3 m/s 741 mmHg 72%
19:00 +26°C° 0.6 mm 3 m/s 741 mmHg 78%
20:00 +25°C° 0.6 mm 3 m/s 741 mmHg 83%
21:00 +23°C° 1.4 mm 2 m/s 741 mmHg 87%
22:00 +21°C° 1.4 mm 2 m/s 741 mmHg 91%
23:00 +20°C° 1.4 mm 2 m/s 742 mmHg 95%
Voir plus

Nous avons besoin de votre consentement

Meteoprog et ses fournisseurs de services peuvent stocker et accéder à des données personnelles telles que des cookies, des identifiants d'appareils ou d'autres technologies similaires sur votre appareil et traiter ces données pour personnaliser le contenu et les publicités, ainsi que pour fournir des fonctionnalités de médias sociaux et analyser le trafic.

  • Stocker et/ou accéder à des informations sur votre appareil

    Des cookies, des identifiants d'appareils ou d'autres informations peuvent être stockés ou accessibles sur votre appareil aux fins indiquées ci-dessus.

  • Annonces et contenus personnalisés, mesure des annonces et des contenus, connaissance de l'audience et développement de produits

    Les annonces et le contenu peuvent être personnalisés en fonction d'un profil. D'autres données peuvent être ajoutées pour mieux personnaliser les annonces et le contenu. Les performances des publicités et du contenu peuvent être mesurées. Il est possible d'obtenir des informations sur le public qui a vu les publicités et le contenu. Ces données peuvent être utilisées pour développer ou améliorer l'expérience de l'utilisateur, les systèmes et les logiciels.

En cliquant sur "J'accepte", vous autorisez l'utilisation de cookies, des identifiants d'appareils, des balises web ou d'autres technologies similaires. Vos paramètres peuvent être modifiés dans le navigateur de votre appareil.

Dans certains cas, des intérêts légitimes peuvent être invoqués plutôt qu'un consentement. Vous pouvez en savoir plus à ce sujet dans notre Politique de confidentialité et de cookies.